Regional Weather Roundup
Issued by NWS Little Rock, AR

Home | Current Version | Previous Version | Graphics & Text | Print | Product List | Glossary On
Versions: 1 2 3 4 5 6 7 8 9 10 11 12 13 14 15 16 17 18 19 20 21 22 23 24 25 26 27 28 29 30 31 32 33
000
ASUS44 KLZK 251705
RWRLZK

WEATHER ROUNDUP FOR ARKANSAS
NATIONAL WEATHER SERVICE LITTLE ROCK AR
1200 PM CDT TUE APR 25 2017

NOTE: "FAIR" INDICATES FEW OR NO CLOUDS BELOW 12,000 FEET WITH NO
SIGNIFICANT WEATHER AND/OR OBSTRUCTIONS TO VISIBILITY.

ARZ001-003-010-029-251800-
NORTHWEST ARKANSAS

CITY           SKY/WX    TMP DP  RH WIND       PRES   REMARKS
FAYETTEVILLE   LGT RAIN  73  57  57 S21G31    29.51F
FORT SMITH     SUNNY     81  56  42 S14G24    29.52F
HARRISON       SUNNY     76  55  48 SE20      29.55F
BENTONVILLE    SUNNY     73  54  49 S16G28    29.51F
ROGERS         MOSUNNY   74  56  53 S20G29    29.51F
SILOAM SPGS    SUNNY     73  55  53 S25G36    29.49S
HIGHFILL       MOSUNNY   74  57  55 S18G26    29.49F
SPRINGDALE     MOSUNNY   73  55  53 S17G30    29.53F
$$

ARZ004-005-016-251800-
NORTH CENTRAL ARKANSAS

CITY           SKY/WX    TMP DP  RH WIND       PRES   REMARKS
BATESVILLE     SUNNY    N/A N/A N/A S12G20    29.66F
FLIPPIN        SUNNY    N/A N/A N/A S10G23    29.54F
MTN HOME       SUNNY     75  52  44 S16G24    29.57F
$$

ARZ040-041-251800-
WEST CENTRAL ARKANSAS

CITY           SKY/WX    TMP DP  RH WIND       PRES   REMARKS
MENA           MOSUNNY   75  63  64 SW5       29.61F
$$

ARZ009-017-025-026-028-251800-
NORTHEAST ARKANSAS

CITY           SKY/WX    TMP DP  RH WIND       PRES   REMARKS
JONESBORO      SUNNY     75  51  43 S20G29    29.68F
NEWPORT        SUNNY     74  55  51 S18       29.67F
WALNUT RIDGE   SUNNY     75  54  46 S22       29.67F
BLYTHEVILLE    SUNNY     75  54  47 S12G22    29.72F
NW BLYTHEVILLE SUNNY     77  52  41 S17G25    29.71
$$

ARZ022-023-033-042-044-251800-
CENTRAL ARKANSAS

CITY           SKY/WX    TMP DP  RH WIND       PRES   REMARKS
LITTLE ROCK    MOSUNNY   74  55  51 S17       29.67F
N LITTLE ROCK    N/A     74  54  50 S12G23    29.66F
JACKSONVILLE   SUNNY     74  55  51 S13G21    29.66F
CONWAY           N/A     75  55  50 S18       29.63F
SEARCY         SUNNY     75  57  53 S12G20    29.68F
HOT SPRINGS    SUNNY     75  59  57 S10G20    29.65F
RUSSELLVILLE   SUNNY     74  53  48 S9G22     29.60F
$$

ARZ036-251800-
EAST ARKANSAS

CITY           SKY/WX    TMP DP  RH WIND       PRES   REMARKS
WEST MEMPHIS   SUNNY     74  55  51 S12G21    29.71F
$$

ARZ050-053-066-070-073-251800-
SOUTHWEST ARKANSAS

CITY           SKY/WX    TMP DP  RH WIND       PRES   REMARKS
ARKADELPHIA    FAIR      76  61  59 S13       29.67F
CAMDEN         SUNNY     77  57  50 S12       29.70F
TEXARKANA      MOSUNNY   74  62  66 S14       29.65F
EL DORADO        N/A    N/A N/A N/A MISG      29.71F
DE QUEEN       MOSUNNY   75  64  68 S14G23    29.60F
$$

ARZ056-057-069-251800-
SOUTHEAST ARKANSAS

CITY           SKY/WX    TMP DP  RH WIND       PRES   REMARKS
PINE BLUFF     SUNNY     75  54  47 S17       29.69F
STUTTGART      SUNNY     75  50  41 S16G25    29.70F
MONTICELLO     SUNNY     75  49  39 S13G23    29.71F

$$






USA.gov is the U.S. government's official web portal to all federal, state and local government web resources and services.